EWS-G2 (GOES 15)

Last updated on Fri Oct 11 2024 00:02:17 GMT+0000 (Coordinated Universal Time)

1 36411U 10008A 24284.55855243 .00000042 00000+0 00000+0 0 9995 2 36411 0.3047 274.3334 0006336 311.5713 56.1270 1.00272296 53486
UTC large
Height (km)
Speed (km/s)
/
Latitude / Longitude
Inclination (degrees)
Orbital Period (minutes)
Azimuth
Elevation
Range (km)
Doppler Factor

Next 0 passes for location: London (51.5072 / 0.1276)

Sorry there are no passes over London.